SCP
0 0 0 0 0 0 0 0 0 0 0 0 0 0 0 0 0 0 0 0 0 0 0 0 0 0 0 0 0 0 0 0
0 0 0 0 0 0 0 0 0 0 0 0 0 0 0 0 0 0 0 0 0 0 0 0 0 0 0 0 0 0 0 0
0 0 0 0 0 0 0 0 0 0 0 0 0 0 0 0 0 0 0 0 0 0 0 0 0 0 0 0 0 0 0 0
0 -0 0 0 0 0 0 0 0 0 0 0 0 0 0 0 0 0 0 0 0 0 0 0 0 0 0 0 0 0 0 0
0 0 0 0 0 0 0 0 0 0 0 0 0 0 0 0 0 0 0 0 0 0 0 0 0 0 0 0 0 0 0 0
-0 -0 0 0 0 0 0 0 0 0 0 0 0 0 0 0 0 0 0 0 0 0 0 0 0 0 0 0 0 0 0 0
0 0 0 0 0 0 0 0 0 0 0 0 0 0 0 0 0 0 0 0 0 0 0 0 0 0 0 0 0 0 0 0
0 0 0 0 0 0 0 0 0 0 0 0 0 0 0 0 0 0 0 0 0 0 0 0 0 0 0 0 0 0 0 0
0 0 0 0 0 0 0 0 0 0 0 0 0 0 0 0 0 0 0 0 0 0 0 0 0 0 0 0 0 0 0 0
0 0 0 0 0 0 0 0 0 0 0 0 0 0 0 0 0 0 0 0 0 0 0 0 0 0 0 0 0 0 0 0
0 0 0 0 0 0 0 0 0 0 0 0 0 0 0 0 0 0 0 0 0 0 0 0 0 0 0 0 -0 -0 -0 0
0 0 0 0 0 0 0 0 0 0 -0 0 0 0 0 0 0 0 0 0 0 0 0 0 0 0 -0 -0 -0 0 0 0
0 0 0 0 0 0 0 0 0 0 0 0 0 0 0 0 0 0 -0 0 0 0 0 -0 -0 -0 -0 -0 -0 -0 -0 -0
0 0 0 0 0 0 0 0 0 0 0 0 0 0 0 0 0 0 0 0 -0 -0 -0 -0 -0 -0 -0 -0 -0 -0 -0 0
0 0 0 0 0 0 0 0 -0 0 0 0 0 0 0 0 0 0 -0 -0 -0 -0 -0 -0 -0 -0 -0 -0 -0 -0 -0 0
0 0 0 0 0 0 0 0 -0 -0 0 -0 0 0 0 0 0 -0 0 -0 -0 -0 -0 -0 -0 -0 -0 -0 -0 -0 -0 -0
0 0 0 0 0 0 0 0 -0 -0 -0 -0 0 0 0 -0 -0 -0 0 0 -0 -0 -0 -0 -0 -0 -0 -0 -0 -0 -0 -0
0 0 0 0 0 0 0 0 0 -0 -0 -0 -0 0 0 -0 -0 -0 -0 -0 -0 -0 -0 0 -0 -0 -0 -0 -0 -0 -0 -0
0 0 0 0 0 0 0 0 0 0 0 0 -0 0 0 0 -0 -0 -0 -0 -0 -0 -0 -0 -0 0 -0 -0 -0 -0 -0 -0
0 0 0 0 0 -0 0 0 0 -0 0 0 0 0 0 0 0 -0 -0 -0 -0 -0 -0 -0 -0 0 0 0 -0 -0 -0 -0
Wind_Speed_500mb
77 77 71 62 46 39 33 31 30 24 16 10 7 7 9 13 17 22 27 31 36 40 45 50 53 56 58 57 57 56 53 52
75 64 52 41 33 36 29 21 15 10 5 6 8 11 14 18 23 28 33 37 41 45 50 55 59 62 62 59 51 47 49 55
63 42 52 59 45 33 22 14 9 5 7 11 14 18 23 28 34 39 43 46 50 54 59 60 62 61 58 47 41 42 57 64
65 67 65 46 34 24 14 4 3 8 13 17 22 27 33 39 44 48 51 52 52 54 56 57 57 51 45 41 44 51 57 62
60 52 46 33 20 9 2 9 16 22 27 32 36 39 43 45 46 47 47 47 49 53 53 49 44 39 35 37 43 50 59 60
49 39 32 22 14 9 13 15 19 26 32 37 40 42 42 42 40 40 40 44 49 51 41 34 36 35 33 30 37 46 53 56
42 33 28 23 18 22 25 25 29 31 34 38 39 36 33 32 33 33 36 47 41 38 34 29 30 31 31 34 40 46 50 50
37 30 25 22 27 28 26 29 33 34 36 35 32 30 30 32 31 33 36 38 37 34 33 29 30 31 28 30 30 40 47 54
28 24 21 20 19 21 25 30 37 38 37 35 31 30 30 29 29 27 31 32 28 26 29 27 27 25 24 24 28 38 46 51
26 20 22 23 23 26 31 35 42 45 41 31 26 24 24 24 24 24 23 24 25 26 28 29 27 25 21 24 27 28 31 44
24 22 22 23 23 25 23 29 41 43 30 22 21 19 19 21 23 25 24 22 21 24 27 33 33 30 27 24 21 21 24 39
25 21 21 22 24 24 25 29 41 37 25 22 23 25 26 21 22 22 19 20 19 21 30 39 39 34 35 33 29 34 41 41
19 20 21 22 24 25 29 34 40 39 24 22 26 30 29 23 25 23 19 16 23 31 36 35 34 37 35 31 32 39 40 33
16 19 18 18 21 23 28 31 39 42 29 24 25 29 33 26 24 17 16 14 19 20 20 22 22 24 24 19 15 29 46 51
15 15 14 15 17 21 26 30 35 41 40 29 26 27 31 32 34 33 27 23 17 18 14 11 15 17 18 9 14 25 45 39
10 8 10 14 16 22 25 28 31 38 40 36 29 26 27 30 32 34 38 42 38 33 24 20 13 14 16 17 24 32 39 48
11 9 13 14 17 22 25 28 30 36 39 36 32 27 26 27 27 31 40 41 41 40 36 31 25 28 23 24 31 45 50 57
11 16 18 18 20 25 28 28 28 30 34 31 29 28 27 31 30 36 38 38 42 48 46 45 40 35 37 44 50 53 59 61
18 16 18 22 26 28 29 26 27 29 28 26 23 23 27 29 32 36 37 37 38 44 47 45 44 48 49 47 48 52 59 56
18 18 20 23 26 31 31 28 26 24 23 22 23 27 26 27 28 30 34 37 39 39 40 42 43 47 45 42 43 47 50 52
Wind_Direction_500mb
110 112 111 111 116 118 128 132 126 122 125 146 164 208 241 259 268 275 279 283 285 285 286 287 289 291 292 293 296 293 288 285
118 110 99 111 129 140 137 137 139 147 206 263 275 276 280 283 287 288 288 288 288 287 286 285 287 288 290 293 291 285 284 284
126 126 137 153 151 145 148 157 171 191 269 282 285 289 289 289 288 288 289 290 290 289 289 289 290 291 291 288 281 276 286 289
119 135 139 139 139 146 149 153 321 332 308 301 299 296 294 293 293 294 295 295 295 294 295 296 296 294 291 282 275 279 286 290
130 129 124 125 124 107 21 330 330 316 312 310 306 303 300 299 300 302 301 301 300 298 296 295 292 293 291 282 282 283 286 294
117 111 105 95 72 35 14 350 337 328 322 316 311 308 308 308 308 309 310 310 310 307 302 295 293 294 297 296 297 295 295 300
108 99 87 74 51 31 14 4 355 343 336 330 323 318 317 316 316 317 322 319 319 321 320 313 304 307 311 307 305 304 304 303
100 87 76 64 43 30 13 10 3 351 344 336 328 325 324 324 323 321 320 317 315 317 317 317 316 312 316 309 307 307 310 312
97 104 86 67 49 34 22 19 10 357 343 337 328 326 329 326 323 322 320 319 319 326 329 325 325 321 315 305 303 310 316 320
95 87 74 61 41 20 13 9 5 355 349 346 343 339 337 333 328 328 327 328 338 339 338 342 347 339 336 329 319 317 322 322
95 79 64 52 40 26 17 19 7 1 1 8 13 14 6 355 345 342 346 348 353 354 349 351 357 5 4 3 5 2 353 334
92 80 67 59 41 28 23 21 16 11 15 27 24 20 14 6 356 8 12 12 14 1 351 355 4 9 14 20 18 9 356 349
87 68 55 49 37 35 29 24 19 18 21 33 26 15 14 33 18 18 26 15 354 345 342 352 6 8 15 9 13 16 5 8
76 60 54 48 40 37 33 24 18 17 24 34 26 18 24 33 43 41 20 356 337 335 340 3 16 355 357 6 20 36 26 11
52 48 50 44 30 27 30 24 17 17 24 30 30 22 28 34 40 45 57 51 27 38 26 13 3 19 21 37 45 47 36 22
46 40 47 38 23 21 28 22 13 18 26 29 32 30 34 38 42 43 42 38 41 55 62 64 46 37 40 80 74 64 60 41
55 66 57 50 36 34 27 18 8 16 21 28 33 39 42 42 44 48 49 42 42 49 60 68 69 66 67 69 61 55 50 47
65 67 61 52 41 23 14 10 4 8 15 21 27 36 46 51 48 53 52 49 44 46 47 45 52 55 58 56 56 57 50 41
56 74 67 52 42 22 14 14 8 6 12 20 28 34 38 48 50 52 55 53 51 48 48 49 50 54 52 52 53 48 48 36
72 84 71 58 40 23 26 28 23 24 29 34 36 40 43 43 48 53 53 54 51 50 47 46 48 49 50 45 42 46 44 41
Wind_Speed_850mb
77 77 71 62 46 39 33 31 30 24 16 10 7 7 9 13 17 22 27 31 36 40 45 50 53 56 58 57 57 56 53 52
75 64 52 41 33 36 29 21 15 10 5 6 8 11 14 18 23 28 33 37 41 45 50 55 59 62 62 59 51 47 49 55
63 42 52 59 45 33 22 14 9 5 7 11 14 18 23 28 34 39 43 46 50 54 59 60 62 61 58 47 41 42 57 64
65 67 65 46 34 24 14 4 3 8 13 17 22 27 33 39 44 48 51 52 52 54 56 57 57 51 45 41 44 51 57 62
60 52 46 33 20 9 2 9 16 22 27 32 36 39 43 45 46 47 47 47 49 53 53 49 44 39 35 37 43 50 59 60
49 39 32 22 14 9 13 15 19 26 32 37 40 42 42 42 40 40 40 44 49 51 41 34 36 35 33 30 37 46 53 56
42 33 28 23 18 22 25 25 29 31 34 38 39 36 33 32 33 33 36 47 41 38 34 29 30 31 31 34 40 46 50 50
37 30 25 22 27 28 26 29 33 34 36 35 32 30 30 32 31 33 36 38 37 34 33 29 30 31 28 30 30 40 47 54
28 24 21 20 19 21 25 30 37 38 37 35 31 30 30 29 29 27 31 32 28 26 29 27 27 25 24 24 28 38 46 51
26 20 22 23 23 26 31 35 42 45 41 31 26 24 24 24 24 24 23 24 25 26 28 29 27 25 21 24 27 28 31 44
24 22 22 23 23 25 23 29 41 43 30 22 21 19 19 21 23 25 24 22 21 24 27 33 33 30 27 24 21 21 24 39
25 21 21 22 24 24 25 29 41 37 25 22 23 25 26 21 22 22 19 20 19 21 30 39 39 34 35 33 29 34 41 41
19 20 21 22 24 25 29 34 40 39 24 22 26 30 29 23 25 23 19 16 23 31 36 35 34 37 35 31 32 39 40 33
16 19 18 18 21 23 28 31 39 42 29 24 25 29 33 26 24 17 16 14 19 20 20 22 22 24 24 19 15 29 46 51
15 15 14 15 17 21 26 30 35 41 40 29 26 27 31 32 34 33 27 23 17 18 14 11 15 17 18 9 14 25 45 39
10 8 10 14 16 22 25 28 31 38 40 36 29 26 27 30 32 34 38 42 38 33 24 20 13 14 16 17 24 32 39 48
11 9 13 14 17 22 25 28 30 36 39 36 32 27 26 27 27 31 40 41 41 40 36 31 25 28 23 24 31 45 50 57
11 16 18 18 20 25 28 28 28 30 34 31 29 28 27 31 30 36 38 38 42 48 46 45 40 35 37 44 50 53 59 61
18 16 18 22 26 28 29 26 27 29 28 26 23 23 27 29 32 36 37 37 38 44 47 45 44 48 49 47 48 52 59 56
18 18 20 23 26 31 31 28 26 24 23 22 23 27 26 27 28 30 34 37 39 39 40 42 43 47 45 42 43 47 50 52
Wind_Direction_850mb
110 112 111 111 116 118 128 132 126 122 125 146 164 208 241 259 268 275 279 283 285 285 286 287 289 291 292 293 296 293 288 285
118 110 99 111 129 140 137 137 139 147 206 263 275 276 280 283 287 288 288 288 288 287 286 285 287 288 290 293 291 285 284 284
126 126 137 153 151 145 148 157 171 191 269 282 285 289 289 289 288 288 289 290 290 289 289 289 290 291 291 288 281 276 286 289
119 135 139 139 139 146 149 153 321 332 308 301 299 296 294 293 293 294 295 295 295 294 295 296 296 294 291 282 275 279 286 290
130 129 124 125 124 107 21 330 330 316 312 310 306 303 300 299 300 302 301 301 300 298 296 295 292 293 291 282 282 283 286 294
117 111 105 95 72 35 14 350 337 328 322 316 311 308 308 308 308 309 310 310 310 307 302 295 293 294 297 296 297 295 295 300
108 99 87 74 51 31 14 4 355 343 336 330 323 318 317 316 316 317 322 319 319 321 320 313 304 307 311 307 305 304 304 303
100 87 76 64 43 30 13 10 3 351 344 336 328 325 324 324 323 321 320 317 315 317 317 317 316 312 316 309 307 307 310 312
97 104 86 67 49 34 22 19 10 357 343 337 328 326 329 326 323 322 320 319 319 326 329 325 325 321 315 305 303 310 316 320
95 87 74 61 41 20 13 9 5 355 349 346 343 339 337 333 328 328 327 328 338 339 338 342 347 339 336 329 319 317 322 322
95 79 64 52 40 26 17 19 7 1 1 8 13 14 6 355 345 342 346 348 353 354 349 351 357 5 4 3 5 2 353 334
92 80 67 59 41 28 23 21 16 11 15 27 24 20 14 6 356 8 12 12 14 1 351 355 4 9 14 20 18 9 356 349
87 68 55 49 37 35 29 24 19 18 21 33 26 15 14 33 18 18 26 15 354 345 342 352 6 8 15 9 13 16 5 8
76 60 54 48 40 37 33 24 18 17 24 34 26 18 24 33 43 41 20 356 337 335 340 3 16 355 357 6 20 36 26 11
52 48 50 44 30 27 30 24 17 17 24 30 30 22 28 34 40 45 57 51 27 38 26 13 3 19 21 37 45 47 36 22
46 40 47 38 23 21 28 22 13 18 26 29 32 30 34 38 42 43 42 38 41 55 62 64 46 37 40 80 74 64 60 41
55 66 57 50 36 34 27 18 8 16 21 28 33 39 42 42 44 48 49 42 42 49 60 68 69 66 67 69 61 55 50 47
65 67 61 52 41 23 14 10 4 8 15 21 27 36 46 51 48 53 52 49 44 46 47 45 52 55 58 56 56 57 50 41
56 74 67 52 42 22 14 14 8 6 12 20 28 34 38 48 50 52 55 53 51 48 48 49 50 54 52 52 53 48 48 36
72 84 71 58 40 23 26 28 23 24 29 34 36 40 43 43 48 53 53 54 51 50 47 46 48 49 50 45 42 46 44 41